Rock Springs, WY

11:09 PM MDT on August 28, 2016 (GMT -0600)
Rock Springs-Sweetwater

Weather History for KRKS - April, 2013

Change the Weather History Date:

Thursday, April 25, 2013

  Actual Average Record
Temperature  
Mean Temperature 43 °F 44 °F  
Max Temperature 61 °F 57 °F 74 °F (1977)
Min Temperature 24 °F 32 °F 20 °F (1950)
Degree Days  
Heating Degree Days 22 21  
Month to date heating degree days 746 603  
Since 1 July heating degree days 7142 7432  
Cooling Degree Days 0 0  
Month to date cooling degree days 0 0  
Year to date cooling degree days 0 0  
Moisture  
Dew Point 6 °F    
Average Humidity 28    
Maximum Humidity 47    
Minimum Humidity 9    
Precipitation  
Precipitation 0.00 in 0.04 in 0.69 in (2016)
Month to date precipitation T 0.73  
Year to date precipitation T 2.34  
Sea Level Pressure  
Sea Level Pressure 30.00 in    
Wind  
Wind Speed 8 mph (West)    
Max Wind Speed 23 mph    
Max Gust Speed 30 mph    
Visibility 10 miles    
Events      
T = Trace of Precipitation, MM = Missing Value Source: NWS Daily Summary

Daily Weather History Graph

Daily Weather History Graph

Search for Another Location

Airport or City:

Trip Planner

Search our weather history database for the weather conditions in past years. The results will help you decide how hot, cold, wet, or windy it might be!

Date:

Astronomy

Apr. 25, 2013 Rise Set
Actual Time 6:20 AM MDT 8:08 PM MDT
Civil Twilight 5:51 AM MDT 8:37 PM MDT
Nautical Twilight 5:15 AM MDT 9:13 PM MDT
Astronomical Twilight 4:36 AM MDT 9:52 PM MDT
Moon 8:25 PM MDT (4/25) 6:06 AM MDT (4/25)
Length of Visible Light 14h 46m
Length of Day
13h 47m
Full, 100% of the Moon is Illuminated
Apr 25
Full
Apr 25
Full
May 2
Last Quarter
May 9
New
May 17
First Quarter

Hourly Weather History & Observations

Time (MDT) Temp. Windchill Dew Point Humidity Pressure Visibility Wind Dir Wind Speed Gust Speed Precip Events Conditions
12:54 AM 35.1 °F 30.1 °F 7.0 °F 31% 30.12 in 10.0 mi SSW 5.8 mph - N/A   Clear
1:54 AM 30.9 °F 26.2 °F 8.1 °F 38% 30.11 in 10.0 mi SSW 4.6 mph - N/A   Clear
2:54 AM 34.0 °F - 8.1 °F 34% 30.06 in 10.0 mi Calm Calm - N/A   Clear
3:54 AM 30.9 °F - 9.0 °F 40% 30.06 in 10.0 mi Calm Calm - N/A   Clear
4:54 AM 30.9 °F - 9.0 °F 40% 30.06 in 10.0 mi Calm Calm - N/A   Clear
5:54 AM 27.0 °F 23.0 °F 9.0 °F 47% 30.06 in 10.0 mi ENE 3.5 mph - N/A   Clear
6:54 AM 30.0 °F - 9.0 °F 41% 30.05 in 10.0 mi Calm Calm - N/A   Clear
7:54 AM 34.0 °F - 12.0 °F 40% 30.06 in 10.0 mi Calm Calm - N/A   Clear
8:54 AM 34.0 °F - 15.1 °F 46% 30.08 in 10.0 mi Calm Calm - N/A   Clear
9:54 AM 42.1 °F - 12.9 °F 31% 30.04 in 10.0 mi Calm Calm - N/A   Clear
10:54 AM 48.9 °F - 12.0 °F 23% 30.01 in 10.0 mi Variable 6.9 mph - N/A   Clear
11:54 AM 52.0 °F - 8.1 °F 17% 29.99 in 10.0 mi West 10.4 mph - N/A   Clear
12:54 PM 55.0 °F - 7.0 °F 15% 29.94 in 10.0 mi West 13.8 mph 20.7 mph N/A   Clear
1:54 PM 57.0 °F - 7.0 °F 14% 29.93 in 10.0 mi West 9.2 mph 28.8 mph N/A   Clear
2:54 PM 57.9 °F - 3.9 °F 11% 29.89 in 10.0 mi West 12.7 mph 23.0 mph N/A   Clear
3:54 PM 59.0 °F - 1.0 °F 10% 29.88 in 10.0 mi WNW 15.0 mph 24.2 mph N/A   Clear
4:03 PM 57.2 °F - 1.4 °F 10% 29.96 in 10.0 mi SSW 8.1 mph 19.6 mph N/A   Clear
4:54 PM 61.0 °F - 3.0 °F 10% 29.85 in 10.0 mi West 17.3 mph 26.5 mph N/A   Clear
5:50 PM 57.2 °F - -0.4 °F 10% 29.97 in 10.0 mi WNW 19.6 mph 28.8 mph N/A   Clear
5:54 PM 57.0 °F - -0.9 °F 9% 29.90 in 10.0 mi WNW 15.0 mph 28.8 mph N/A   Clear
6:54 PM 57.0 °F - 1.0 °F 10% 29.90 in 10.0 mi West 18.4 mph 23.0 mph N/A   Clear
7:54 PM 52.0 °F - 3.0 °F 14% 29.94 in 10.0 mi NW 17.3 mph - N/A   Clear
8:54 PM 46.9 °F - -0.0 °F 14% 29.99 in 10.0 mi WNW 11.5 mph - N/A   Clear
9:54 PM 46.0 °F 40.2 °F 6.1 °F 20% 30.00 in 10.0 mi WNW 12.7 mph - N/A   Clear
10:54 PM 39.9 °F 35.1 °F 7.0 °F 26% 30.01 in 10.0 mi West 6.9 mph - N/A   Clear
11:54 PM 39.0 °F 34.8 °F 7.0 °F 27% 30.02 in 10.0 mi SW 5.8 mph - N/A   Clear